Simultaneous Nadir Overpasses (SNOs) Predictions

Prediction of SNOs between GOES-16 and AQUA Satellite Orbit:

Table of predicted SNOs for the next 14.0 days since TLE Epoch: 1/18/2025
Index Date Time (GOES-16) GOES-16 Lat,Lon AQUA Lat,Lon Distance(km) Time Diff (sec)
1 01/18/2025 07:37:13 -0.02, -75.18 0.36, -76.88 193.63 80
2 01/20/2025 07:15:26 -0.02, -75.21 -0.65, -72.20 342.81 80
3 01/20/2025 19:35:02 0.02, -75.22 -0.32, -76.95 195.85 80
4 01/22/2025 19:18:32 0.02, -75.26 0.65, -72.25 341.88 80
5 01/23/2025 07:37:59 -0.02, -75.28 0.35, -76.95 191.06 80
6 01/25/2025 07:16:09 -0.03, -75.32 -0.71, -72.27 347.17 80
7 01/25/2025 19:35:44 0.03, -75.32 -0.34, -77.00 191.46 80
8 01/27/2025 19:19:12 0.04, -75.36 0.68, -72.30 347.90 80
9 01/28/2025 07:38:39 -0.04, -75.39 0.27, -77.01 184.19 80
10 01/30/2025 07:16:45 -0.05, -75.44 -0.71, -72.30 356.30 80
11 01/30/2025 19:36:20 0.05, -75.44 -0.30, -77.04 182.00 80
